Volver al catálogo

STARLINK-4454

ActivoComunicacionesPO
NORAD 53499·PAYLOAD·🇺🇸 United States

Lanzado Aug 12, 2022 desde Vandenberg Space Force Base

Loading…

Próximos Pases (próximas 24 horas)

TLE

ActualizadoSource: CelesTrak SupGP

Época: Sep 15, 2026, 01:58 UTC

1 53499C 22099AL  26258.08243056  .00425040  00000+0  16377-2 0  2581
2 53499  97.6050  26.9292 0001510  87.6907 159.4461 15.87071327    15

Sigue STARLINK-4454 en tiempo real con AllMySat

Download on the App Store